GSE Systems PE Ratio 2006-2021 | GVP

Current and historical p/e ratio for GSE Systems (GVP) from 2006 to 2021. The price to earnings ratio is calculated by taking the latest closing price and dividing it by the most recent earnings per share (EPS) number. The PE ratio is a simple way to assess whether a stock is over or under valued and is the most widely used valuation measure. GSE Systems PE ratio as of July 23, 2021 is 0.00.

Please refer to the Stock Price Adjustment Guide for more information on our historical prices.

GSE Systems PE Ratio Historical Data
Date Stock Price TTM Net EPS PE Ratio
2021-07-23 1.41 0.00
2021-03-31 1.70 $-0.32 0.00
2020-12-31 1.32 $-0.52 0.00
2020-09-30 1.04 $-0.42 0.00
2020-06-30 1.01 $-0.45 0.00
2020-03-31 0.93 $-0.35 0.00
2019-12-31 1.65 $-0.25 0.00
2019-09-30 1.75 $-0.25 0.00
2019-06-30 2.34 $-0.22 0.00
2019-03-31 2.80 $-0.16 0.00
2018-12-31 2.10 $-0.03 0.00
2018-09-30 3.60 $0.21 17.14
2018-06-30 3.25 $0.21 15.48
2018-03-31 3.25 $0.20 16.25
2017-12-31 3.25 $0.27 12.04
2017-09-30 3.55 $0.05 71.00
2017-06-30 3.10 $0.09 34.44
2017-03-31 3.40 $0.06 56.67
2016-12-31 3.50 $0.08 43.75
2016-09-30 2.89 $0.08 36.11
2016-06-30 2.23 $-0.13 0.00
2016-03-31 2.73 $-0.22 0.00
2015-12-31 2.40 $-0.26 0.00
2015-09-30 1.49 $-0.36 0.00
2015-06-30 1.55 $-0.27 0.00
2015-03-31 1.50 $-0.30 0.00
2014-12-31 1.59 $-0.38 0.00
2014-09-30 1.56 $-0.34 0.00
2014-06-30 1.66 $-0.29 0.00
2014-03-31 1.74 $-0.63 0.00
2013-12-31 1.60 $-0.58 0.00
2013-09-30 1.57 $-0.59 0.00
2013-06-30 1.51 $-0.49 0.00
2013-03-31 2.00 $-0.03 0.00
2012-12-31 2.16 $0.06 36.00
2012-09-30 2.03 $0.14 14.50
2012-06-30 2.30 $0.15 15.33
2012-03-31 2.38 $0.13 18.31
2011-12-31 1.95 $0.15 13.00
2011-09-30 1.76 $-0.04 0.00
2011-06-30 2.16 $-0.12 0.00
2011-03-31 2.26 $-0.09 0.00
2010-12-31 3.62 $-0.12 0.00
2010-09-30 3.35 $-0.10 0.00
2010-06-30 4.06 $-0.04 0.00
2010-03-31 5.41 $-0.03 0.00
2009-12-31 5.48 $-0.03 0.00
2009-09-30 6.22 $0.08 77.75
2009-06-30 6.75 $0.08 84.38
2009-03-31 5.95 $0.03 198.33
2008-12-31 5.90 $-0.01 0.00
2008-09-30 7.00 $0.02 350.00
2008-06-30 8.91 $0.01 891.00
2008-03-31 8.08 $0.05 161.60
2007-12-31 10.24 $0.07 146.29
2007-09-30 6.73 $0.07 96.14
2007-06-30 6.60 $0.08 82.50
2007-03-31 6.32 $0.06 105.33
2006-12-31 6.65 $-0.09 0.00
Sector Industry Market Cap Revenue
Computer and Technology Computer Software $0.029B $0.058B
GSE Systems, Inc. develops and delivers business and technology solutions by applying process control and simulation software, systems and services to the pharmaceutical and chemical research & development, energy, process and manufacturing industries worldwide. The company's products are used in the following industries: specialty chemical, food and beverage, petroleum refining, pharmaceutical, fossil and nuclear power generation, metals and water treatment. (PRESS RELEASE)
Stock Name Country Market Cap PE Ratio
Microsoft (MSFT) United States $2181.672B 39.90
Adobe (ADBE) United States $298.164B 64.26
Oracle (ORCL) United States $244.830B 20.98
Salesforce, Inc (CRM) United States $229.880B 71.13
SAP SE (SAP) Germany $170.480B 21.68
Intuit (INTU) United States $144.398B 68.81
Dassault Systemes SA (DASTY) France $69.806B 68.76
Autodesk (ADSK) United States $68.787B 118.43
VMware (VMW) United States $66.334B 30.87
Synopsys (SNPS) United States $43.495B 55.35
Cadence Design Systems (CDNS) United States $40.535B 62.25
ANSYS (ANSS) United States $31.845B 65.48
SS&C Technologies Holdings (SSNC) United States $19.362B 18.07
PTC (PTC) United States $17.843B 65.25
Nuance Communications (NUAN) United States $15.777B 145.13
Citrix Systems (CTXS) United States $14.271B 31.23
Open Text (OTEX) Canada $14.034B 15.80
Pegasystems (PEGA) United States $11.117B 0.00
Aspen Technology (AZPN) United States $9.920B 43.41
Manhattan Associates (MANH) United States $9.489B 114.74
Trend Micro (TMICY) Japan $7.538B 29.43
Descartes Systems Group (DSGX) Canada $6.043B 105.01
MicroStrategy (MSTR) United States $5.260B 106.66
ACI Worldwide (ACIW) United States $4.157B 22.56
CommVault Systems (CVLT) United States $3.786B 122.63
Blackbaud (BLKB) United States $3.500B 52.33
Cornerstone OnDemand (CSOD) United States $3.239B 21.74
Verint Systems (VRNT) United States $2.761B 16.53
Progress Software (PRGS) United States $2.025B 15.63
PROS Holdings (PRO) United States $1.916B 0.00
Bottomline Technologies (EPAY) United States $1.793B 141.07
QAD (QADB) United States $1.781B 140.98
Avid Technology (AVID) United States $1.668B 47.32
Sapiens (SPNS) Israel $1.393B 25.49
Simulations Plus (SLP) United States $0.953B 83.07
OptimizeRx (OPRX) United States $0.941B 2693.00
Canaan (CAN) China $0.911B 0.00
Magic Software Enterprises (MGIC) Israel $0.847B 22.14
American Software (AMSWA) United States $0.682B 80.15
Icad Inc (ICAD) United States $0.373B 0.00
Smith Micro Software (SMSI) United States $0.304B 71.00
ServiceSource (SREV) United States $0.151B 0.00
Park City (PCYG) United States $0.109B 51.09
Neonode (NEON) Sweden $0.067B 0.00
NetSol Technologies (NTWK) United States $0.048B 19.14
BSQUARE (BSQR) United States $0.038B 0.00